FREGAT R/B, 41331

Orbit data source: Space-Track

FREGAT R/B, 41331 is space debris in MEO originally from a launch on Sun, 07 Feb 2016 UTC launched from the Plesetsk Missile And Space Complex (PKMTR). Debris objects in space refer to the collection of defunct objects orbiting the Earth. Examples of debris include non-operational satellites, rocket bodies, and fragments generated from explosions, collisions, or faulty payload assembly.

Loading next visibility...
Identifier
41331, 2016-008B
Orbit
MEO
Country
Flag of CISCIS
Related business
Manufacturer
Lavochkin
Mission
Spacecraft
Bus & Motor
FREGAT, Unknown motor
Mass
1,000 kg wet, 1,000 kg dry
Launch date (UTC)
2016-02-07 (10 years ago)
Launch vehicle
Unknown
Launch site
Plesetsk Missile And Space Complex (PKMTR)
Object type
Payload
Rocket body
Debris
Shape & HBR
Cyl, 1.7 m
Radar Cross Section
8.354 m², Large (>1 m²)

Expand to show TLE details & history
Last TLE update: 3 days ago

TLE from 3 days ago
0 FREGAT R/B
1 41331U 16008B   26170.89096250 -.00000062  00000-0  00000+0 0  9990
2 41331  65.0963 317.6865 0065184 103.9799 256.7370  2.09389211 79226
Epoch: 2026-06-19T21:22Z
TLE epoch observation values (Epoch: 2026-06-19T21:22:59.159Z)
Latitude
-0.00001°
Longitude
88.81207°
Altitude
19,470.763 km
Speed
3.924 km/s
True Right ascension
21h 10m 41s
True Declination
0° 00' 00"
Sunlit
Object was in daylight at epoch
Visualization orbit readout
Latitude
Unknown
Longitude
Unknown
Altitude
Unknown
Speed
Unknown
Apparent Right ascension
Unknown
Apparent Declination
Unknown
Sunlit
N/A
Visualization observer readout
Local Sidereal Time
21:25:12
Azimuth
Unknown
Elevation
Unknown
Doppler factor
Unknown
Orbital elements
Apogee altitude
19,598.379 km
Perigee altitude
19,261.922 km
Semi-major axis
25,808.287 km
Eccentricity
0.00652
Inclination
65.0963°
RAAN
317.6865°
Arg. of periapsis
103.9799°
True anomaly
256.01135°
Mean anomaly
256.737°
Eccentric anomaly
256.37403°
Mean motion
0.52349 °/min
Orbital period
687.7 mins
BSTAR
0
Loading maneuver chart data...
Computing Atmospheric mass density...
Loading historical data...
Loading historical data...
Loading historical data...
Loading historical data...
Loading historical data...
Loading historical data...
Loading historical data...
Other satellites on launch #8 in the year 2016 (2016-02-07 UTC)

Documentation

Showing up to 5 results
|